Weather History for Caldwell, TX

Change the Weather History Date:

Friday, February 8, 2013

  Actual Average (KCLL) Record (KCLL)
Temperature  
Mean Temperature 57 °F 53 °F  
Max Temperature 66 °F 64 °F 82 °F (1994)
Min Temperature 48 °F 43 °F 11 °F (1933)
Degree Days  
Heating Degree Days 8 12  
Month to date heating degree days 102  
Since 1 July heating degree days 1180  
Cooling Degree Days 0 1  
Month to date cooling degree days 5  
Year to date cooling degree days 16  
Growing Degree Days 7 (Base 50)    
Moisture  
Dew Point 42 °F    
Average Humidity 62    
Maximum Humidity 88    
Minimum Humidity 28    
Precipitation  
Precipitation 0.00 in 0.10 in 1.82 in (1956)
Month to date precipitation 0.80  
Year to date precipitation 4.04  
Sea Level Pressure  
Sea Level Pressure 30.17 in    
Wind  
Wind Speed 10 mph (North)    
Max Wind Speed 16 mph    
Max Gust Speed 22 mph    
Visibility 10 miles    
Events      
T = Trace of Precipitation, MM = Missing Value Source: NWS Daily Summary

Daily Weather History Graph

Daily Weather History Graph

Search for Another Location

Airport:

Trip Planner

Search our weather history database for the weather conditions in past years. The results will help you decide how hot, cold, wet, or windy it might be!

Date:

Astronomy

Feb. 08, 2013 Rise Set
Actual Time 7:12 AM CST 6:09 PM CST
Civil Twilight 6:48 AM CST 6:34 PM CST
Nautical Twilight 6:19 AM CST 7:02 PM CST
Astronomical Twilight 5:51 AM CST 7:31 PM CST
Moon 5:39 AM CST (2/8) 4:46 PM CST (2/8)
Length of Visible Light 11h 46m
Length of Day
10h 56m
Waning Crescent, 3% of the Moon is Illuminated
Feb 8
Waning Crescent
Feb 10
New
Feb 17
First Quarter
Feb 25
Full
Mar 4
Last Quarter

Hourly Weather History & Observations

Time (CST) Temp. Dew Point Humidity Pressure Visibility Wind Dir Wind Speed Gust Speed Precip Events Conditions
12:15 AM 57.2 °F 48.2 °F 72% 30.10 in 10.0 mi NW 11.5 mph - N/A   Clear
12:35 AM 57.2 °F 48.2 °F 72% 30.10 in 10.0 mi NW 13.8 mph - N/A   Clear
12:55 AM 55.4 °F 48.2 °F 77% 30.11 in 10.0 mi NNW 12.7 mph 17.3 mph N/A   Clear
1:15 AM 55.4 °F 46.4 °F 72% 30.11 in 10.0 mi NNW 13.8 mph - N/A   Clear
1:35 AM 55.4 °F 48.2 °F 77% 30.11 in 10.0 mi NW 12.7 mph 18.4 mph N/A   Clear
1:55 AM 55.4 °F 48.2 °F 77% 30.12 in 10.0 mi NW 13.8 mph 20.7 mph N/A   Clear
2:15 AM 53.6 °F 46.4 °F 77% 30.12 in 10.0 mi NW 12.7 mph - N/A   Clear
2:35 AM 53.6 °F 46.4 °F 77% 30.12 in 10.0 mi NW 12.7 mph 17.3 mph N/A   Clear
2:55 AM 53.6 °F 46.4 °F 77% 30.12 in 10.0 mi NNW 15.0 mph 20.7 mph N/A   Clear
3:15 AM 51.8 °F 46.4 °F 82% 30.13 in 10.0 mi NW 15.0 mph 21.9 mph N/A   Clear
3:35 AM 51.8 °F 46.4 °F 82% 30.14 in 10.0 mi NW 13.8 mph - N/A   Clear
3:55 AM 51.8 °F 46.4 °F 82% 30.13 in 10.0 mi NNW 13.8 mph 20.7 mph N/A   Clear
4:15 AM 51.8 °F 46.4 °F 82% 30.13 in 10.0 mi NNW 12.7 mph 20.7 mph N/A   Clear
4:35 AM 51.8 °F 46.4 °F 82% 30.14 in 10.0 mi NNW 10.4 mph - N/A   Clear
4:55 AM 50.0 °F 46.4 °F 87% 30.15 in 10.0 mi NNW 10.4 mph - N/A   Clear
5:15 AM 50.0 °F 44.6 °F 82% 30.15 in 10.0 mi NNW 11.5 mph - N/A   Clear
5:35 AM 50.0 °F 44.6 °F 82% 30.16 in 10.0 mi NNW 12.7 mph - N/A   Clear
5:55 AM 48.2 °F 44.6 °F 87% 30.16 in 10.0 mi NNW 12.7 mph - N/A   Clear
6:15 AM 48.2 °F 44.6 °F 87% 30.17 in 10.0 mi NNW 10.4 mph 16.1 mph N/A   Clear
6:35 AM 48.2 °F 42.8 °F 82% 30.18 in 10.0 mi NNW 9.2 mph 17.3 mph N/A   Clear
6:55 AM 48.2 °F 42.8 °F 82% 30.18 in 10.0 mi NNW 10.4 mph - N/A   Clear
7:15 AM 48.2 °F 42.8 °F 82% 30.19 in 10.0 mi North 11.5 mph 16.1 mph N/A   Clear
7:35 AM 48.2 °F 42.8 °F 82% 30.21 in 10.0 mi NNW 11.5 mph 19.6 mph N/A   Clear
7:55 AM 48.2 °F 42.8 °F 82% 30.22 in 10.0 mi NNW 13.8 mph - N/A   Clear
8:15 AM 48.2 °F 42.8 °F 82% 30.22 in 10.0 mi NNW 16.1 mph 20.7 mph N/A   Clear
8:35 AM 48.2 °F 41.0 °F 76% 30.22 in 10.0 mi North 13.8 mph 18.4 mph N/A   Clear
8:55 AM 50.0 °F 41.0 °F 71% 30.23 in 10.0 mi North 13.8 mph - N/A   Clear
9:15 AM 51.8 °F 41.0 °F 67% 30.24 in 10.0 mi North 11.5 mph 17.3 mph N/A   Clear
9:35 AM 51.8 °F 41.0 °F 67% 30.25 in 10.0 mi NNW 15.0 mph - N/A   Clear
9:55 AM 53.6 °F 41.0 °F 62% 30.25 in 10.0 mi North 9.2 mph - N/A   Clear
10:15 AM 55.4 °F 41.0 °F 58% 30.25 in 10.0 mi North 9.2 mph - N/A   Clear
10:35 AM 55.4 °F 41.0 °F 58% 30.26 in 10.0 mi North 9.2 mph - N/A   Clear
10:55 AM 57.2 °F 41.0 °F 55% 30.26 in 10.0 mi North 4.6 mph - N/A   Clear
11:15 AM 57.2 °F 39.2 °F 51% 30.26 in 10.0 mi NNW 8.1 mph - N/A   Clear
11:35 AM 59.0 °F 39.2 °F 48% 30.25 in 10.0 mi North 8.1 mph - N/A   Clear
11:55 AM 60.8 °F 39.2 °F 45% 30.24 in 10.0 mi NNW 6.9 mph - N/A   Clear
12:15 PM 60.8 °F 37.4 °F 42% 30.23 in 10.0 mi NNE 9.2 mph - N/A   Clear
12:35 PM 62.6 °F 37.4 °F 39% 30.22 in 10.0 mi NNE 5.8 mph - N/A   Clear
12:55 PM 62.6 °F 35.6 °F 37% 30.21 in 10.0 mi North 5.8 mph - N/A   Clear
1:15 PM 64.4 °F 35.6 °F 34% 30.20 in 10.0 mi NNW 5.8 mph - N/A   Clear
1:35 PM 64.4 °F 35.6 °F 34% 30.20 in 10.0 mi NNE 5.8 mph - N/A   Clear
1:55 PM 64.4 °F 35.6 °F 34% 30.18 in 10.0 mi North 8.1 mph - N/A   Clear
2:15 PM 66.2 °F 35.6 °F 32% 30.17 in 10.0 mi NNE 9.2 mph - N/A   Clear
2:35 PM 66.2 °F 33.8 °F 30% 30.16 in 10.0 mi NE 9.2 mph - N/A   Clear
2:55 PM 66.2 °F 32.0 °F 28% 30.16 in 10.0 mi NE 9.2 mph - N/A   Clear
3:15 PM 66.2 °F 32.0 °F 28% 30.16 in 10.0 mi NNE 6.9 mph - N/A   Clear
3:35 PM 66.2 °F 32.0 °F 28% 30.15 in 10.0 mi NE 6.9 mph - N/A   Clear
3:55 PM 66.2 °F 33.8 °F 30% 30.16 in 10.0 mi Calm Calm - N/A   Clear
4:15 PM 66.2 °F 33.8 °F 30% 30.15 in 10.0 mi North 6.9 mph - N/A   Clear
4:35 PM 66.2 °F 35.6 °F 32% 30.15 in 10.0 mi Calm Calm - N/A   Clear
4:55 PM 66.2 °F 35.6 °F 32% 30.15 in 10.0 mi ENE 5.8 mph - N/A   Clear
5:15 PM 66.2 °F 33.8 °F 30% 30.14 in 10.0 mi ENE 4.6 mph - N/A   Clear
5:35 PM 64.4 °F 33.8 °F 32% 30.14 in 10.0 mi ENE 4.6 mph - N/A   Clear
5:55 PM 64.4 °F 35.6 °F 34% 30.15 in 10.0 mi Calm Calm - N/A   Clear
6:15 PM 60.8 °F 37.4 °F 42% 30.15 in 10.0 mi ENE 3.5 mph - N/A   Clear
6:35 PM 60.8 °F 37.4 °F 42% 30.15 in 10.0 mi Calm Calm - N/A   Clear
6:55 PM 59.0 °F 37.4 °F 45% 30.15 in 10.0 mi Calm Calm - N/A   Clear
7:15 PM 57.2 °F 37.4 °F 48% 30.15 in 10.0 mi Calm Calm - N/A   Clear
7:35 PM 57.2 °F 37.4 °F 48% 30.16 in 10.0 mi Calm Calm - N/A   Clear
7:55 PM 55.4 °F 39.2 °F 54% 30.15 in 10.0 mi ENE 3.5 mph - N/A   Clear
8:15 PM 53.6 °F 41.0 °F 62% 30.16 in 10.0 mi Calm Calm - N/A   Clear
8:35 PM 53.6 °F 41.0 °F 62% 30.16 in 10.0 mi Calm Calm - N/A   Clear
8:55 PM 51.8 °F 42.8 °F 71% 30.16 in 10.0 mi Calm Calm - N/A   Clear
9:15 PM 53.6 °F 44.6 °F 72% 30.16 in 10.0 mi East 4.6 mph - N/A   Clear
9:35 PM 55.4 °F 46.4 °F 72% 30.16 in 10.0 mi East 5.8 mph - N/A   Clear
9:55 PM 53.6 °F 48.2 °F 82% 30.16 in 10.0 mi East 5.8 mph - N/A   Clear
10:15 PM 53.6 °F 48.2 °F 82% 30.17 in 10.0 mi East 5.8 mph - N/A   Clear
10:35 PM 53.6 °F 48.2 °F 82% 30.17 in 10.0 mi East 5.8 mph - N/A   Clear
10:55 PM 53.6 °F 48.2 °F 82% 30.17 in 10.0 mi Calm Calm - N/A   Clear
11:15 PM 51.8 °F 48.2 °F 88% 30.16 in 10.0 mi Calm Calm - N/A   Clear
11:35 PM 51.8 °F 48.2 °F 88% 30.17 in 10.0 mi Calm Calm - N/A   Scattered Clouds
11:55 PM 51.8 °F 48.2 °F 88% 30.16 in 10.0 mi East 3.5 mph - N/A   Partly Cloudy